Location: Pedimozza
(42.0500°N, 9.3500°E)
Time: 08:13:48
(UTC+00:00)

Cosmos 1602 - Pass Details

Date: 19 August 2019
Orbit: 515 x 534 km, 82.5° (Epoch: 18 September)

Event Time Altitude Azimuth Distance (km) Brightness Sun altitude
Rises 19:49:48 0° 195° (SSW) 2,628 7.1 -16.1°
Reaches altitude 10° 19:51:57 10° 199° (SSW) 1,743 6.2 -16.5°
Maximum altitude 19:55:43 58° 280° (W) 605 4.3 -17.0°
Drops below altitude 10° 19:59:31 10° 0° (N) 1,752 6.9 -17.6°
Sets 20:01:41 0° 4° (N) 2,644 7.8 -17.9°
